Powrót do katalogu

STARLINK-5269

AktywnyŁącznośćVLEO
NORAD 54161·PAYLOAD·🇺🇸 United States

Wystrzelony Oct 28, 2022 z Vandenberg Space Force Base

Loading…

Następne Przeloty (najbliższe 24 godziny)

TLE

ŚwieżeSource: CelesTrak SupGP

Epoka: Sep 15, 2026, 01:52 UTC

1 54161C 22141E   26258.07826389 -.00030986  00000+0 -99631-3 0  2589
2 54161  53.1586 233.0168 0001173  88.5335 326.4968 15.31720962    19

Śledź STARLINK-5269 w czasie rzeczywistym z AllMySat

Download on the App Store